Tucson, AZ

5:16 AM MST on February 11, 2016 (GMT -0700)
Tucson International

Weather History for KTUS - November, 2012

Change the Weather History Date:

Monday, November 5, 2012

  Actual Average Record
Temperature  
Mean Temperature 71 °F 64 °F  
Max Temperature 89 °F 78 °F 92 °F (2009)
Min Temperature 52 °F 50 °F 27 °F (1935)
Degree Days  
Heating Degree Days 0 3  
Month to date heating degree days 0 14  
Since 1 July heating degree days 2 38  
Cooling Degree Days 6 2  
Month to date cooling degree days 25 12  
Year to date cooling degree days 3558 3131  
Growing Degree Days 20 (Base 50)    
Moisture  
Dew Point 26 °F    
Average Humidity 23    
Maximum Humidity 38    
Minimum Humidity 8    
Precipitation  
Precipitation 0.00 in 0.01 in 0.64 in (1995)
Month to date precipitation 0.00 0.09  
Year to date precipitation 6.70 10.18  
Snow  
Snow 0.00 in - - ()
Month to date snowfall 0.0  
Snow Depth 0.00 in    
Sea Level Pressure  
Sea Level Pressure 30.03 in    
Wind  
Wind Speed 6 mph (SSE)    
Max Wind Speed 12 mph    
Max Gust Speed 14 mph    
Visibility 10 miles    
Events      
T = Trace of Precipitation, MM = Missing Value Source: NWS Daily Summary

Daily Weather History Graph

Daily Weather History Graph

Search for Another Location

Airport or City:

Trip Planner

Search our weather history database for the weather conditions in past years. The results will help you decide how hot, cold, wet, or windy it might be!

Date:

Astronomy

Nov. 05, 2012 Rise Set
Actual Time 6:44 AM MST 5:29 PM MST
Civil Twilight 6:18 AM MST 5:55 PM MST
Nautical Twilight 5:49 AM MST 6:24 PM MST
Astronomical Twilight 5:21 AM MST 6:53 PM MST
Moon 11:10 PM MST (11/5) 12:05 PM MST (11/5)
Length of Visible Light 11h 36m
Length of Day
10h 45m
Waning Gibbous, 62% of the Moon is Illuminated
Nov 5
Waning Gibbous
Nov 6
Last Quarter
Nov 13
New
Nov 20
First Quarter
Nov 28
Full

Hourly Weather History & Observations

Time (MST) Temp. Dew Point Humidity Pressure Visibility Wind Dir Wind Speed Gust Speed Precip Events Conditions
12:53 AM 57.0 °F 28.9 °F 34% 30.05 in 10.0 mi South 5.8 mph - N/A   Clear
1:53 AM 54.0 °F 28.0 °F 37% 30.05 in 10.0 mi South 3.5 mph - N/A   Clear
2:53 AM 55.9 °F 28.0 °F 34% 30.04 in 10.0 mi SE 10.4 mph - N/A   Clear
3:53 AM 55.0 °F 28.9 °F 37% 30.04 in 10.0 mi SE 9.2 mph - N/A   Clear
4:53 AM 54.0 °F 28.9 °F 38% 30.04 in 10.0 mi SE 5.8 mph - N/A   Clear
5:53 AM 53.1 °F 28.0 °F 38% 30.06 in 10.0 mi SE 4.6 mph - N/A   Clear
6:53 AM 53.1 °F 27.0 °F 37% 30.08 in 10.0 mi SSE 10.4 mph - N/A   Clear
7:53 AM 57.0 °F 28.9 °F 34% 30.08 in 10.0 mi SSE 9.2 mph - N/A   Clear
8:53 AM 63.0 °F 28.9 °F 28% 30.09 in 10.0 mi SE 4.6 mph - N/A   Clear
9:53 AM 70.0 °F 28.9 °F 22% 30.08 in 10.0 mi Variable 4.6 mph - N/A   Clear
10:53 AM 78.1 °F 28.9 °F 17% 30.06 in 10.0 mi North 3.5 mph - N/A   Clear
11:53 AM 82.0 °F 30.0 °F 15% 30.03 in 10.0 mi North 5.8 mph - N/A   Clear
12:53 PM 87.1 °F 26.1 °F 11% 29.99 in 10.0 mi NE 5.8 mph - N/A   Clear
1:53 PM 87.1 °F 24.1 °F 10% 29.97 in 10.0 mi Variable 4.6 mph - N/A   Clear
2:53 PM 87.1 °F 21.0 °F 9% 29.96 in 10.0 mi Calm Calm - N/A   Clear
3:53 PM 88.0 °F 19.9 °F 8% 29.95 in 10.0 mi North 5.8 mph - N/A   Clear
4:53 PM 87.1 °F 21.0 °F 9% 29.96 in 10.0 mi NNW 10.4 mph - N/A   Clear
5:53 PM 79.0 °F 24.1 °F 13% 29.98 in 10.0 mi NNW 5.8 mph - N/A   Clear
6:53 PM 75.9 °F 25.0 °F 15% 30.00 in 10.0 mi WNW 3.5 mph - N/A   Clear
7:53 PM 72.0 °F 25.0 °F 17% 30.01 in 10.0 mi WSW 3.5 mph - N/A   Clear
8:53 PM 66.9 °F 24.1 °F 20% 30.03 in 10.0 mi South 5.8 mph - N/A   Clear
9:53 PM 64.0 °F 23.0 °F 21% 30.03 in 10.0 mi SSE 8.1 mph - N/A   Clear
10:53 PM 62.1 °F 23.0 °F 22% 30.03 in 10.0 mi SSE 3.5 mph - N/A   Clear
11:53 PM 59.0 °F 21.9 °F 24% 30.02 in 10.0 mi SE 8.1 mph - N/A   Clear